30.06.2024;16:00;85
30.06.2024;15:00;91
30.06.2024;14:00;96
30.06.2024;13:00;97
30.06.2024;12:00;99
30.06.2024;11:00;104
30.06.2024;10:00;93
30.06.2024;09:00;89
30.06.2024;08:00;85
30.06.2024;07:00;90
30.06.2024;06:00;100
30.06.2024;05:00;102
30.06.2024;04:00;96
30.06.2024;03:00;67
30.06.2024;02:00;77
30.06.2024;01:00;91
30.06.2024;00:00;97
29.06.2024;23:00;102
29.06.2024;22:00;110
29.06.2024;21:00;123
29.06.2024;20:00;138
29.06.2024;19:00;127
29.06.2024;18:00;125
29.06.2024;17:00;131
29.06.2024;16:00;138
29.06.2024;15:00;142
29.06.2024;14:00;145
29.06.2024;13:00;138
29.06.2024;12:00;123
29.06.2024;11:00;118
29.06.2024;10:00;69
29.06.2024;09:00;45
29.06.2024;08:00;27
29.06.2024;07:00;19
29.06.2024;06:00;14
29.06.2024;05:00;15
29.06.2024;04:00;17
29.06.2024;03:00;13
29.06.2024;02:00;11
29.06.2024;01:00;29
29.06.2024;00:00;43
28.06.2024;23:00;59
28.06.2024;22:00;73
28.06.2024;21:00;93
28.06.2024;20:00;120
28.06.2024;19:00;133
28.06.2024;18:00;147
28.06.2024;17:00;145
